Location: Newark
(25.4800°N, 85.7200°E)
Time: 18:52:16
(UTC+00:00)

Explorer 11/Cluster Stage 4 - Pass Details

Date: 22 August 2019
Orbit: 467 x 1259 km, 28.8° (Epoch: 13 October)

Event Time Altitude Azimuth Distance (km) Brightness Sun altitude
Rises 10:05:28 0° 284° (WNW) 4,009 11.1 35.3°
Reaches altitude 10° 10:08:32 10° 282° (WNW) 2,949 10.8 34.6°
Maximum altitude 10:15:40 63° 203° (SSW) 1,046 7.9 33.0°
Drops below altitude 10° 10:21:22 10° 122° (ESE) 2,381 8.7 31.7°
Sets 10:23:38 0° 119° (ESE) 3,191 9.3 31.2°
